Regional Weather Roundup
Issued by NWS

Home | Current Version | Previous Version | Graphics & Text | Print | Product List | Glossary On
Versions: 1 2 3 4 5 6 7 8 9 10 11 12 13 14 15 16 17 18 19 20 21 22 23 24 25 26 27 28 29 30 31 32 33 34 35 36 37 38 39 40 41 42 43 44 45 46 47 48 49 50
000
ASUS43 KLMK 111502
RWRKY
KENTUCKY REGIONAL WEATHER ROUNDUP
NATIONAL WEATHER SERVICE LOUISVILLE KY
1000 AM EST MON DEC 11 2017

NOTE "FAIR" INDICATES FEW OR NO CLOUDS BELOW 12,000 FEET
WITH NO SIGNIFICANT WEATHER AND/OR OBSTRUCTIONS TO VISIBILITY.

KYZ001>023-026-027-061>063-070>075-111600-
WESTERN AND SOUTH CENTRAL KENTUCKY

CITY           SKY/WX    TMP DP  RH WIND       PRES   REMARKS
PADUCAH        SUNNY     42  29  59 SW9       30.07F
HENDERSON      CLOUDY    38  32  79 SW8       30.06F WCI  32
OWENSBORO      MOSUNNY   35  30  82 S7        30.07F WCI  29
HOPKINSVILLE   SUNNY     41  28  60 S7        30.09S
BOWLING GREEN  CLOUDY    40  30  67 S8        30.10F WCI  34
GLASGOW        NOT AVBL
$$

KYZ024-025-028>034-038-045-046-053-111600-
NORTH CENTRAL KENTUCKY

CITY           SKY/WX    TMP DP  RH WIND       PRES   REMARKS
LOUISVILLE/SDF CLOUDY    35  28  75 SE5       30.06F WCI  31
LOUISVILLE/LOU CLOUDY    34  29  82 S6        30.07F WCI  29
FORT KNOX      CLOUDY    37  28  70 S7        30.04F WCI  31
$$

KYZ035>037-039>044-047>052-055>060-089>105-111600-
NORTHEAST KENTUCKY

CITY           SKY/WX    TMP DP  RH WIND       PRES   REMARKS
LEXINGTON      SUNNY     36  26  67 VRB5      30.06F WCI  32
COVINGTON      CLOUDY    30  26  85 S5        30.04F WCI  25
FRANKFORT      CLOUDY    35  25  66 CALM      30.05F
$$

KYZ054-064>069-076>088-106>120-111600-
SOUTHEAST KENTUCKY

CITY           SKY/WX    TMP DP  RH WIND       PRES   REMARKS
JACKSON        SUNNY     37  24  59 S3        30.07F
LONDON         SUNNY     38  25  59 S6        30.09F WCI  33
SOMERSET       SUNNY     36  27  69 S5        30.10F WCI  32
MIDDLESBORO    SUNNY     34  27  74 CALM      30.12F
MONTICELLO     SUNNY     41  29  62 VRB6      30.11F
$$





USA.gov is the U.S. government's official web portal to all federal, state and local government web resources and services.